sat.trackr.live / text

‹ back to catalog

GSAT-16

NORAD 40332 · 2014-078A

PAYLOAD ACTIVE UNKNOWN

§ Identity

Operator
Country
IND
Launch date
2014-12-06
Launch site
FRGUI
Launch vehicle
Mass (kg)
RCS (m²)
63.25

Purposes: comms

External: N2YO · Heavens-Above · Gunter

§ Orbital elements

Epoch: 2026-09-15T22:34:02.044416Z

Period
1,436.08 min
Inclination
0.0118°
Eccentricity
0.0005943
Mean motion
1.00272986 rev/d
Perigee alt
35,761.2 km
Apogee alt
35,811.3 km
Semi-major
42,164.4 km
B*
0.0000e+0
RAAN
220.8820°
Arg perigee
250.8596°
Mean anomaly
276.7452°
Rev number
4,302

§ Raw data

GSAT-161 40332U 14078A   26258.94030144  .00000079  00000+0  00000+0 0  99942 40332   0.0118 220.8820 0005943 250.8596 276.7452  1.00272986 43029

JSON: /api/v1/satellites/40332 · /tle

For live sub-satellite position, see the globe view (requires WebGL).

§ Visibility from observer

Set your observer location to see the next 7 days of passes ≥ 10°. The values pass through the URL so the page stays shareable.

No JS? Fill the form by hand. The geolocation button needs JavaScript.